Weather History for KSHL - May, 2014

Change the Weather History Date:

Monday, May 12, 2014

  Actual Average Record
Temperature  
Mean Temperature 50 °F -  
Max Temperature 57 °F 69 °F 87 °F (1958)
Min Temperature 44 °F 44 °F 28 °F (2013)
Degree Days  
Heating Degree Days 14    
Moisture  
Dew Point 47 °F    
Average Humidity 94    
Maximum Humidity 100    
Minimum Humidity 81    
Precipitation  
Precipitation 0.33 in - - ()
Sea Level Pressure  
Sea Level Pressure 29.80 in    
Wind  
Wind Speed 17 mph (NNW)    
Max Wind Speed 26 mph    
Max Gust Speed 36 mph    
Visibility 6 miles    
Events Rain    
Averages and records for this station are not official NWS values.
T = Trace of Precipitation, MM = Missing Value Source: NWS Daily Summary

Daily Weather History Graph

Daily Weather History Graph

Search for Another Location

Airport or City:

Trip Planner

Search our weather history database for the weather conditions in past years. The results will help you decide how hot, cold, wet, or windy it might be!

Date:

Astronomy

May. 12, 2014 Rise Set
Actual Time 6:02 AM CDT 8:37 PM CDT
Civil Twilight 5:30 AM CDT 9:09 PM CDT
Nautical Twilight 4:49 AM CDT 9:50 PM CDT
Astronomical Twilight 4:03 AM CDT 10:36 PM CDT
Moon 6:33 PM CDT (5/12) 4:46 AM CDT (5/12)
Length of Visible Light 15h 39m
Length of Day
14h 34m
Waxing Gibbous, 95% of the Moon is Illuminated
May 12
Waxing Gibbous
May 14
Full
May 21
Last Quarter
May 28
New
Jun 5
First Quarter

Hourly Weather History & Observations

Time (CDT) Temp. Windchill Dew Point Humidity Pressure Visibility Wind Dir Wind Speed Gust Speed Precip Events Conditions
12:15 AM 57.2 °F - 55.4 °F 94% 29.72 in 10.0 mi NNW 11.5 mph 18.4 mph N/A   Overcast
12:35 AM 55.4 °F - 53.6 °F 94% 29.71 in 10.0 mi North 15.0 mph - N/A   Overcast
12:55 AM 55.4 °F - 53.6 °F 94% 29.70 in 10.0 mi North 18.4 mph - N/A   Overcast
1:15 AM 55.4 °F - 53.6 °F 94% 29.70 in 9.0 mi NNE 18.4 mph - N/A   Overcast
1:35 AM 55.4 °F - 53.6 °F 94% 29.70 in 7.0 mi NNE 15.0 mph 20.7 mph N/A   Overcast
1:55 AM 55.4 °F - 53.6 °F 94% 29.69 in 7.0 mi NE 16.1 mph - N/A   Overcast
2:15 AM 55.4 °F - 53.6 °F 94% 29.69 in 9.0 mi NNE 12.7 mph - N/A   Overcast
2:35 AM 55.4 °F - 53.6 °F 94% 29.70 in 8.0 mi North 9.2 mph 15.0 mph N/A   Overcast
2:55 AM 55.4 °F - 53.6 °F 94% 29.69 in 7.0 mi North 12.7 mph - N/A   Overcast
3:15 AM 55.4 °F - 53.6 °F 94% 29.71 in 8.0 mi NNW 12.7 mph - N/A   Overcast
3:35 AM 53.6 °F - 53.6 °F 100% 29.71 in 7.0 mi NNW 15.0 mph - N/A   Overcast
3:55 AM 53.6 °F - 53.6 °F 100% 29.70 in 5.0 mi NNW 17.3 mph - N/A   Overcast
4:15 AM 53.6 °F - 53.6 °F 100% 29.69 in 5.0 mi North 16.1 mph 21.9 mph N/A   Overcast
4:35 AM 53.6 °F - 51.8 °F 94% 29.70 in 7.0 mi North 16.1 mph 21.9 mph N/A   Overcast
4:55 AM 53.6 °F - 51.8 °F 94% 29.71 in 8.0 mi North 17.3 mph - N/A   Overcast
5:15 AM 53.6 °F - 51.8 °F 94% 29.72 in 9.0 mi North 16.1 mph - N/A   Overcast
5:35 AM 53.6 °F - 51.8 °F 94% 29.70 in 7.0 mi North 19.6 mph - N/A   Overcast
5:55 AM 51.8 °F - 51.8 °F 100% 29.72 in 6.0 mi North 15.0 mph 24.2 mph N/A   Overcast
6:15 AM 51.8 °F - 51.8 °F 100% 29.73 in 1.8 mi North 15.0 mph 25.3 mph N/A Rain Heavy Rain
6:35 AM 51.8 °F - 51.8 °F 100% 29.72 in 4.0 mi North 18.4 mph - N/A Rain Rain
6:55 AM 51.8 °F - 50.0 °F 94% 29.70 in 2.0 mi North 23.0 mph - 0.20 in Rain Heavy Rain
7:15 AM 50.0 °F - 50.0 °F 100% 29.73 in 8.0 mi North 21.9 mph - N/A   Overcast
7:35 AM 50.0 °F - 48.2 °F 94% 29.73 in 8.0 mi North 20.7 mph - N/A   Overcast
7:55 AM 50.0 °F - 48.2 °F 94% 29.75 in 10.0 mi North 15.0 mph 24.2 mph 0.01 in   Overcast
8:15 AM 48.2 °F - 46.4 °F 93% 29.76 in 2.0 mi North 18.4 mph 25.3 mph N/A Rain Rain
8:35 AM 48.2 °F - 46.4 °F 93% 29.76 in 2.5 mi North 19.6 mph - N/A Rain Heavy Rain
9:15 AM 48.2 °F - 46.4 °F 93% 29.79 in 1.8 mi North 15.0 mph 20.7 mph N/A Rain Rain
9:35 AM 48.2 °F - 46.4 °F 93% 29.77 in 2.5 mi North 17.3 mph - N/A Rain Heavy Rain
9:55 AM 48.2 °F - 46.4 °F 93% 29.78 in 1.8 mi North 15.0 mph 21.9 mph 0.12 in   Mostly Cloudy
10:15 AM 48.2 °F - 46.4 °F 93% 29.78 in 3.0 mi North 17.3 mph - N/A   Mostly Cloudy
10:35 AM 48.2 °F - 46.4 °F 93% 29.78 in 3.0 mi North 18.4 mph - N/A   Overcast
10:55 AM 48.2 °F - 48.2 °F 100% 29.78 in 1.5 mi North 18.4 mph - N/A Rain Light Rain
11:15 AM 48.2 °F - 48.2 °F 100% 29.79 in 2.5 mi North 16.1 mph 23.0 mph N/A   Partly Cloudy
11:35 AM 48.2 °F - 46.4 °F 93% 29.80 in 2.0 mi North 17.3 mph - N/A   Mostly Cloudy
11:55 AM 48.2 °F - 46.4 °F 93% 29.81 in 1.8 mi NNW 16.1 mph - N/A   Overcast
12:15 PM 48.2 °F - 46.4 °F 93% 29.81 in 2.0 mi NNW 16.1 mph - N/A   Mostly Cloudy
12:35 PM 48.2 °F - 46.4 °F 93% 29.81 in 2.0 mi NNW 15.0 mph 21.9 mph N/A   Mostly Cloudy
12:55 PM 48.2 °F - 46.4 °F 93% 29.80 in 2.0 mi NNW 17.3 mph - N/A   Mostly Cloudy
1:15 PM 48.2 °F - 46.4 °F 93% 29.80 in 4.0 mi NNW 16.1 mph 23.0 mph N/A   Mostly Cloudy
1:35 PM 48.2 °F - 46.4 °F 93% 29.81 in 10.0 mi NNW 18.4 mph 25.3 mph N/A   Overcast
1:55 PM 48.2 °F - 46.4 °F 93% 29.81 in 3.0 mi NNW 19.6 mph - N/A   Overcast
2:35 PM 46.4 °F 38.5 °F 46.4 °F 100% 29.83 in 1.8 mi NNW 21.9 mph - N/A   Mostly Cloudy
2:55 PM 46.4 °F 38.5 °F 46.4 °F 100% 29.83 in 1.2 mi NNW 21.9 mph - N/A   Mostly Cloudy
3:15 PM 46.4 °F 38.5 °F 46.4 °F 100% 29.83 in 1.8 mi NNW 21.9 mph - N/A Rain Rain
3:35 PM 48.2 °F - 46.4 °F 93% 29.84 in 1.0 mi NNW 18.4 mph 25.3 mph N/A Rain Rain
3:55 PM 46.4 °F 39.0 °F 46.4 °F 100% 29.84 in 1.0 mi NW 19.6 mph 26.5 mph N/A Rain Light Rain
4:15 PM 48.2 °F - 46.4 °F 93% 29.84 in 1.5 mi NW 18.4 mph 24.2 mph N/A   Overcast
4:35 PM 46.4 °F 38.5 °F 46.4 °F 100% 29.84 in 1.5 mi NW 21.9 mph 27.6 mph N/A Rain Light Rain
4:55 PM 46.4 °F 38.7 °F 44.6 °F 93% 29.85 in 4.0 mi NW 20.7 mph 27.6 mph N/A   Mostly Cloudy
5:15 PM 46.4 °F 38.3 °F 44.6 °F 93% 29.86 in 9.0 mi NW 23.0 mph - N/A   Mostly Cloudy
5:35 PM 46.4 °F 38.7 °F 44.6 °F 93% 29.86 in 10.0 mi NW 20.7 mph 27.6 mph N/A   Overcast
5:55 PM 48.2 °F - 44.6 °F 87% 29.86 in 10.0 mi NW 21.9 mph 28.8 mph N/A   Overcast
6:15 PM 48.2 °F - 44.6 °F 87% 29.86 in 10.0 mi NW 25.3 mph - N/A   Overcast
6:35 PM 46.4 °F 38.3 °F 44.6 °F 93% 29.87 in 10.0 mi NW 23.0 mph 31.1 mph N/A   Overcast
6:55 PM 46.4 °F 37.7 °F 42.8 °F 87% 29.88 in 10.0 mi NNW 26.5 mph 35.7 mph N/A   Overcast
7:15 PM 46.4 °F 38.7 °F 42.8 °F 87% 29.89 in 10.0 mi NNW 20.7 mph 31.1 mph N/A   Overcast
7:35 PM 46.4 °F 37.9 °F 42.8 °F 87% 29.90 in 10.0 mi NNW 25.3 mph - N/A   Overcast
7:55 PM 46.4 °F 38.5 °F 42.8 °F 87% 29.91 in 10.0 mi NNW 21.9 mph 31.1 mph N/A   Overcast
8:15 PM 44.6 °F 36.6 °F 42.8 °F 93% 29.91 in 4.0 mi NW 19.6 mph 26.5 mph N/A   Overcast
8:35 PM 44.6 °F 36.4 °F 42.8 °F 93% 29.92 in 7.0 mi NW 20.7 mph 27.6 mph N/A   Overcast
8:55 PM 44.6 °F 36.4 °F 42.8 °F 93% 29.92 in 6.0 mi NW 20.7 mph - N/A   Overcast
9:15 PM 44.6 °F 36.4 °F 42.8 °F 93% 29.92 in 7.0 mi NW 20.7 mph 27.6 mph N/A   Overcast
9:35 PM 44.6 °F 37.2 °F 42.8 °F 93% 29.93 in 10.0 mi NW 17.3 mph 26.5 mph N/A   Overcast
9:55 PM 46.4 °F 38.1 °F 41.0 °F 81% 29.95 in 10.0 mi NNW 24.2 mph 31.1 mph N/A   Overcast
10:15 PM 44.6 °F 36.6 °F 41.0 °F 87% 29.96 in 10.0 mi NNW 19.6 mph 27.6 mph N/A   Overcast
10:35 PM 44.6 °F 37.4 °F 42.8 °F 93% 29.97 in 10.0 mi NW 16.1 mph - N/A   Overcast
10:55 PM 44.6 °F 37.2 °F 41.0 °F 87% 29.98 in 10.0 mi NNW 17.3 mph 24.2 mph N/A   Overcast
11:15 PM 44.6 °F 36.9 °F 41.0 °F 87% 29.98 in 10.0 mi NW 18.4 mph 26.5 mph N/A   Overcast
11:55 PM 44.6 °F 37.8 °F 41.0 °F 87% 29.99 in 10.0 mi NW 15.0 mph - N/A   Overcast